www.pogodaiklimat.ru
ПОГОДА в Сан-Луис-Обиспо
Время
и дата
02:56 07.12
03:05 07.12
03:18 07.12
03:27 07.12
03:30 07.12
03:41 07.12
03:51 07.12
03:56 07.12
04:07 07.12
04:19 07.12
04:30 07.12
04:47 07.12
04:56 07.12
05:23 07.12
05:28 07.12
05:36 07.12
05:56 07.12
06:56 07.12
06:58 07.12
07:56 07.12
08:56 07.12
09:56 07.12
10:56 07.12
11:56 07.12
12:56 07.12
13:56 07.12
14:03 07.12
14:56 07.12
15:08 07.12
15:56 07.12
16:56 07.12
17:56 07.12
18:56 07.12
19:56 07.12
20:56 07.12
21:56 07.12
22:56 07.12
23:56 07.12
00:56 08.12
01:56 08.12
02:56 08.12
03:56 08.12
04:56 08.12
05:56 08.12
06:56 08.12
07:56 08.12
08:56 08.12
09:56 08.12
Ветер
(напр.,м/с)
Видим. Явления Облачность Т
(С)
Тd
(С)
f
(%)
Тe
(С)
Тes
(С)
Комфортность P
(гПа)
Po
(гПа)
Тmin
(С)
Tmax
(С)
R
(мм)
R24
(мм)
S
(см)
штиль 0 2 км дымка ?/? +3.3 +2.8 97 +2 +2 1012.6
штиль 0 1 км дымка ?/? +3.3 +2.8 97 +2 +2 1012.6
штиль 0 2 км дымка ?/? +3.3 +2.8 97 +2 +2 1012.3
штиль 0 800 м туман ?/? +3.3 +2.8 97 +2 +2 1012.3
штиль 0 400 м туман ?/? +3.3 +2.8 97 +2 +2 1012.3
ЮВ 2 400 м туман ?/? +3.3 +3.3 100 0 0 1012.6
ЮВ 2 400 м туман ?/? +3.0 +3.0 100 0 0 1012.3
штиль 0 400 м туман ?/? +3.3 +3.3 100 +2 +2 1020.2 1012.3 +3.3 +6.7 2.3
штиль 0 800 м туман ?/? +2.8 +2.8 100 +1 +1 1012.6
штиль 0 400 м туман ?/? +2.8 +2.8 100 +1 +1 1012.6
штиль 0 800 м туман ?/? +3.3 +2.2 92 +2 +2 1012.6
штиль 0 400 м туман ?/? +3.3 +3.3 100 +2 +2 1012.6
штиль 0 400 м туман ?/? +3.3 +3.3 100 +2 +2 1020.7 1012.9
В 2 2 км дымка ?/? +2.8 +2.8 100 -1 -1 1012.9
В 2 3 км дымка 5/5 30 м +3.3 +2.8 97 0 0 1013.3
штиль 0 13 км 2/2 30 м +3.3 +3.3 100 +2 +2 1013.3
штиль 0 16 км ясно +3.3 +2.8 97 +2 +2 1021.4 1013.6
штиль 0 10 км дымка ясно +1.7 +1.7 100 0 0 1022.1 1014.3
штиль 0 16 км ясно +1.7 +1.1 96 0 0 1014.3
штиль 0 16 км ясно +4.4 +3.9 97 +3 +3 1022.5 1014.6
ЮВ 2 16 км ясно +7.2 +5.6 90 +5 +5 1023.1 1015.3
штиль 0 16 км ясно +10.0 +7.2 83 +9 +12 1023.6 1015.6 +1.7 +10.0
штиль 0 16 км ясно +12.8 +7.8 72 +12 +18 1023.5 1015.6
штиль 0 16 км 8/8 810 м +14.4 +6.1 57 +14 +16 1022.9 1015.3
З 2 16 км 8/8 810 м +15.0 +5.6 53 +15 +16 1022.5 1015.0
З 3 16 км 8/8 810 м +15.0 +5.6 53 +14 +15 1022.1 1014.3
СЗ 3 16 км ясно +15.6 +6.1 53 +15 +19 1014.3
З 3 16 км ясно +15.0 +5.6 53 +14 +18 1022.6 1015.0
З 3 16 км 5/5 1050 м +15.0 +5.6 53 +14 +15 1015.0
СЗ 6 16 км 5/5 1050 м +13.3 +7.2 67 +11 +12 1023.5 1015.6 +10.0 +15.6
СЗ 4 16 км ясно +11.7 +7.8 77 +10 +10 1023.9 1016.0
СЗ 2 16 км ясно +10.0 +7.8 86 +8 +8 1024.1 1016.3
З 2 16 км ясно +10.0 +7.2 83 +8 +8 1024.4 1016.6
штиль 0 16 км ясно +8.3 +6.7 90 +7 +7 1024.6 1016.6
В 2 16 км ясно +7.8 +6.1 89 +6 +6 1025.0 1017.0
штиль 0 16 км ясно +7.2 +5.0 86 +6 +6 1025.1 1017.3 +6.7 +13.3
В 2 16 км ясно +6.1 +5.0 93 +4 +4 1025.8 1018.0
Ю 2 16 км 5/5 1500 м +5.6 +5.0 96 +3 +3 1026.3 1018.6
ЮЗ 2 16 км 5/5 1500 м +5.0 +4.4 96 +2 +2 1026.0 1018.3
ЮВ 2 16 км ясно +4.4 +3.9 97 +1 +1 1026.1 1018.3
В 2 16 км ясно +4.4 +3.3 93 +2 +2 1026.1 1018.3
штиль 0 16 км ясно +4.4 +3.3 93 +3 +3 1025.9 1018.0 +3.9 +7.2
ЮВ 2 16 км ясно +3.3 +2.2 92 0 0 1025.8 1018.0
штиль 0 16 км ясно +3.3 +2.8 97 +2 +2 1026.0 1018.0
штиль 0 16 км ясно +2.8 +2.2 96 +2 +2 1026.7 1018.6
штиль 0 16 км ясно +3.9 +3.3 96 +3 +3 1027.0 1019.0
В 2 16 км ясно +6.7 +5.0 89 +4 +5 1027.1 1019.3
штиль 0 16 км ясно +10.0 +6.1 77 +9 +12 1027.1 1019.3 +2.8 +10.0
Местоположение метеостанции San Luis Obispo County Regional Airport: широта 35.2361 долгота -120.6361 высота над уровнем моря 63 м.
В архиве по умолчанию представлена погода в Сан-Луис-Обиспо за последние 1-2 суток. Обновление информации о фактической погоде в базе происходит ежечасно! Архивные данные за месяц целиком и за предыдущие месяцы Вы можете получить, выбрав интересующий диапазон дат из раскрывающегося списка и нажав кнопку "Ввод!".
Внимание! Архив погоды МЕТАР в базе сайта по станциям, не включенным в климатический монитор, хранится не более 60 дней. Нет смысла пытаться выбрать более раннюю дату.
*Определитесь, кто Вы:
Внимание! Время в таблицах - местное (без учета летнего времени). Для получения всемирного времени необходимо вычесть поправку, которая равна -8 ч.
Смотрите также архив погоды в соседних городах и на ближайших метеорологических станциях:
Партнеры нашего сайта:      
Пояснения к столбцам:
  • Ветер - указаны скорость ветра в м/с - средняя за 10 мин, порывы в срок и между сроками (в фигурных скобках) и направление, откуда дует ветер: С - северный,
  • СВ - северо-восточный, В - восточный, ЮВ - юго-восточный, Ю - южный, ЮЗ - юго-западный, З - западный, СЗ - северо-западный.
  • Видимость - горизонтальная дальность видимости в метрах или километрах. При видимости от 1 до 10 км при отсутствии осадков обычно наблюдается дымка, при ухудшении видимости до 1 км и менее - туман. В сухую погоду видимость может ухудшаться дымом, пылью или мглою.
  • Явления - указаны атмосферные явления, наблюдавшиеся в срок или в последний час перед сроком; фигурными скобками обозначены явления, наблюдавшиеся между сроками (за 1-3 часа до срока); квадратными скобками обозначены град или гололедные отложения с указанием их диаметра в мм.
  • Облачность - указаны через наклонную черту общая и нижняя облачность в баллах и высота нижней границы облаков в метрах; квадратными скобками обозначены формы облаков: Ci - перистые, Cs - перисто-слоистые, Cc - перисто-кучевые, Ac - высококучевые, As - высокослоистые, Sc - слоисто-кучевые, Ns - слоисто-дождевые, Cu - кучевые, Cb - кучево-дождевые. Подробнее классификацию облаков см. в Атласе облаков (PDF).
  • T - Температура воздуха - температура, измеренная на высоте 2 м над землей.
  • Td - Температура точки росы - температура, при понижении до которой содержащийся в воздухе водяной пар достигнет насыщения.
  • f - Относительная влажность воздуха - влажноcть воздуха, измеренная на высоте 2 м над землей.
  • Te - Эффективная температура - температура, которую ощущает одетый по сезону человек в тени. Характеристика душности погоды. При расчете учитывается влияние влажности воздуха и скорости ветра на теплоощущения человека.
  • Tes - Эффективная температура на солнце - температура, которую ощущает человек, с поправкой на солнечный нагрев. Характеристика знойности погоды. Зависит от высоты солнца над горизонтом, облачности и скорости ветра. Ночью, в пасмурную погоду, а также при ветре 12 м/с и более поправка равна нулю.
  • P - Атмосферное давление - приведенное к уровню моря атмосферное давление.
  • Po - Атмосферное давление - измеренное на уровне метеостанции атмосферное давление.
  • Tmin - Минимальная температура - минимум температуры воздуха на высоте 2 м над землей.
  • Tmax - Максимальная температура - максимум температуры воздуха на высоте 2 м над землей.
  • R - Количество осадков - Количество выпавших осадков за период времени, мм. При наведении курсора мыши на число - период времени, за который выпало указанное количество осадков.
  • R24 - Количество осадков - Количество выпавших осадков за 24 часа, мм.
  • S - Снежный покров - Высота снежного покрова, см. При наведении курсора мыши на число - состояние снежного покрова и степень покрытия местности в баллах.